DW1345 Weather Reports


time (UTC)temp
F
wind
direction
speed
knots
gust
knots
rain 1hr
in
rain 24hr
in
rain mn
in
humidity
%
barometer
mb
20260509153022 48 105 1.7 0.0 0.00 0.00 0.01 78 1013.6
20260509151521 49 119 0.9 0.0 0.00 0.00 0.01 77 1013.8
20260509150022 49 199 0.0 0.0 0.00 0.00 0.01 76 1014.0
20260509144517 49 202 0.0 0.0 0.00 0.00 0.01 74 1014.2
20260509143017 50 202 0.9 0.0 0.00 0.00 0.00 71 1014.2
20260509141520 51 147 0.0 0.0 0.00 0.00 0.00 67 1014.3
20260509140018 51 141 0.0 0.0 0.00 0.00 0.00 62 1014.5
20260509134512 53 189 0.0 0.0 0.00 0.00 0.00 60 1014.5
20260509133012 52 189 0.0 0.0 0.00 0.00 0.00 61 1014.6
20260509131516 52 191 0.0 0.0 0.00 0.00 0.00 61 1014.5
20260509130011 52 192 0.0 0.0 0.00 0.00 0.00 65 1014.6
20260509124510 52 198 0.9 0.0 0.00 0.00 0.00 68 1014.7
20260509123019 52 227 0.0 0.0 0.00 0.00 0.00 67 1014.7
20260509121514 53 225 0.9 0.0 0.00 0.00 0.00 66 1014.7
20260509120009 52 237 0.9 0.0 0.00 0.00 0.00 67 1014.6
20260509114508 53 191 0.9 0.0 0.00 0.00 0.00 61 1014.6
20260509113006 54 202 0.0 0.0 0.00 0.00 0.00 65 1014.7
20260509111506 52 209 0.9 0.0 0.00 0.00 0.00 66 1014.8
20260509110010 51 225 0.9 0.0 0.00 0.00 0.00 69 1014.8
20260509104503 51 229 0.9 0.0 0.00 0.00 0.00 68 1014.9
20260509103003 52 209 1.7 0.0 0.00 0.00 0.00 63 1014.8
20260509101600 53 200 0.9 0.0 0.00 0.00 0.00 62 1015.1
20260509100059 54 186 0.9 0.0 0.00 0.00 0.00 65 1015.0
20260509094610 53 193 2.6 0.0 0.00 0.00 0.00 63 1015.1
20260509093054 53 193 3.5 0.0 0.00 0.00 0.00 62 1015.2
20260509091555 54 198 1.7 0.0 0.00 0.00 0.00 61 1015.2
20260509090101 53 248 1.7 0.0 0.00 0.00 0.00 64 1015.5
20260509084558 53 189 1.7 0.0 0.00 0.00 0.00 64 1015.4
20260509083050 53 189 0.9 0.0 0.00 0.00 0.00 62 1015.6
20260509081547 53 210 0.9 0.0 0.00 0.00 0.00 63 1015.6
20260509080046 53 194 3.5 0.0 0.00 0.00 0.00 63 1015.8
20260509074549 53 247 1.7 0.0 0.00 0.00 0.00 52 1015.8
20260509073041 52 248 2.6 0.0 0.00 0.00 0.00 56 1015.8
20260509071539 55 245 1.7 0.0 0.00 0.00 0.00 51 1015.8
20260509070036 55 162 5.2 0.0 0.00 0.00 0.00 43 1015.7
20260509064534 55 89 3.5 0.0 0.00 0.00 0.00 43 1015.5
20260509063030 53 170 5.2 0.0 0.00 0.00 0.00 44 1015.6
20260509061529 53 132 5.2 0.0 0.00 0.00 0.00 44 1015.5
20260509060027 53 116 6.1 0.0 0.00 0.00 0.00 45 1015.4
20260509054538 52 113 6.1 0.0 0.00 0.00 0.00 45 1015.5
20260509053059 52 155 4.3 0.0 0.00 0.00 0.00 47 1015.4
20260509051526 52 98 6.1 0.0 0.00 0.00 0.00 46 1015.4
20260509050036 52 102 6.1 0.0 0.00 0.00 0.00 47 1015.4
20260509044519 51 76 5.2 0.0 0.00 0.00 0.00 48 1015.4
20260509043018 51 88 6.1 0.0 0.00 0.00 0.00 49 1015.5
20260509041516 50 118 6.1 0.0 0.00 0.00 0.00 49 1015.6
20260509040016 50 85 6.1 0.0 0.00 0.00 0.00 50 1015.7
20260509034514 50 149 7.0 0.0 0.00 0.00 0.00 49 1015.7
20260509033013 50 142 6.1 0.0 0.00 0.00 0.00 48 1015.7
20260509031512 50 127 6.1 0.0 0.00 0.00 0.00 48 1015.8
20260509030025 50 128 5.2 0.0 0.00 0.00 0.00 50 1016.0
20260509024511 50 128 7.0 0.0 0.00 0.00 0.00 50 1015.9
20260509023020 49 130 7.8 0.0 0.00 0.00 0.00 50 1015.9
20260509021507 49 74 5.2 0.0 0.00 0.00 0.00 50 1016.3
20260509020006 49 68 3.5 0.0 0.00 0.00 0.00 51 1016.4
20260509014506 50 48 2.6 0.0 0.00 0.00 0.00 49 1016.5
20260509013004 50 93 4.3 0.0 0.00 0.00 0.00 48 1016.4
20260509011505 50 126 6.1 0.0 0.00 0.00 0.00 48 1016.4
20260509010011 50 59 8.7 0.0 0.00 0.00 0.00 48 1016.4
20260509004501 50 153 8.7 0.0 0.00 0.00 0.00 49 1016.6
20260509003133 50 170 8.7 0.0 0.00 0.00 0.00 49 1016.7
20260509001606 50 132 7.8 0.0 0.00 0.00 0.00 49 1016.8
20260509000111 49 132 8.7 0.0 0.00 0.00 0.00 50 1016.9
20260508234554 49 71 7.8 0.0 0.00 0.00 0.00 50 1017.0
20260508233052 49 144 8.7 0.0 0.00 0.00 0.00 50 1017.1
20260508231552 48 92 7.8 0.0 0.00 0.00 0.00 51 1017.4
20260508230046 48 98 7.0 0.0 0.00 0.00 0.00 51 1017.5
20260508224545 47 128 6.1 0.0 0.00 0.00 0.00 54 1017.9
20260508223042 48 119 7.0 0.0 0.00 0.00 0.00 53 1018.1
20260508221537 49 95 7.8 0.0 0.00 0.00 0.00 48 1017.9
20260508220034 48 88 7.0 0.0 0.00 0.00 0.02 48 1018.1
20260508214534 48 129 6.1 0.0 0.00 0.00 0.02 49 1018.4
20260508213034 48 83 6.1 0.0 0.00 0.00 0.02 47 1018.5
20260508211532 48 93 6.1 0.0 0.00 0.00 0.02 48 1018.3
20260508210034 48 85 6.1 0.0 0.00 0.00 0.02 47 1018.3
20260508204532 48 127 6.1 0.0 0.00 0.00 0.02 48 1018.7
20260508203034 47 138 5.2 0.0 0.00 0.00 0.02 50 1019.0
20260508201531 47 86 5.2 0.0 0.00 0.00 0.02 49 1019.0
20260508200035 47 106 5.2 0.0 0.00 0.00 0.02 47 1019.1
20260508194530 48 107 4.3 0.0 0.00 0.00 0.02 47 1019.1
20260508193029 48 113 4.3 0.0 0.00 0.00 0.02 47 1019.2
20260508191529 48 102 4.3 0.0 0.00 0.00 0.02 47 1019.3
20260508190038 49 132 4.3 0.0 0.00 0.00 0.02 46 1019.3
20260508184528 49 96 4.3 0.0 0.00 0.00 0.02 46 1019.4
20260508183028 49 103 3.5 0.0 0.00 0.00 0.02 46 1019.5
20260508181527 49 86 3.5 0.0 0.00 0.00 0.02 44 1019.6
20260508180028 49 101 4.3 0.0 0.00 0.00 0.02 44 1019.6
20260508174540 50 96 3.5 0.0 0.00 0.00 0.02 44 1019.7
20260508173031 50 107 5.2 0.0 0.00 0.00 0.02 42 1019.6
20260508171526 51 134 3.5 0.0 0.00 0.00 0.02 41 1019.7
20260508170031 50 92 5.2 0.0 0.00 0.00 0.02 41 1019.8
20260508164525 51 134 5.2 0.0 0.00 0.00 0.02 40 1019.9
20260508163039 51 74 5.2 0.0 0.00 0.00 0.02 41 1019.9
20260508161524 53 82 3.5 0.0 0.00 0.00 0.02 39 1020.1
20260508160026 51 109 5.2 0.0 0.00 0.00 0.02 40 1019.9
20260508154523 51 145 4.3 0.0 0.00 0.00 0.02 41 1020.0